Wind_Speed
30 28 28 29 30 29 27 26 25 24 23 23 25 26 27 27 28 28 25 24 24 24 26 25 26 26 26 25 25 24 21 19 19
31 31 28 27 28 28 27 27 26 24 25 25 28 28 28 29 27 26 26 27 26 27 27 28 28 27 26 25 23 20 20 19 20
35 32 31 30 28 27 27 28 27 27 27 29 30 31 29 29 26 27 27 28 29 29 29 28 28 27 25 25 22 19 18 19 22
38 36 34 34 32 31 30 29 29 29 29 30 32 32 31 29 27 28 29 29 31 30 29 27 26 26 26 24 22 21 20 20 23
42 39 38 36 36 33 33 32 31 32 32 34 36 33 32 29 28 29 31 31 31 29 29 27 24 24 24 24 21 21 22 21 22
44 43 40 38 38 38 36 36 35 35 36 38 38 35 32 30 30 31 32 32 31 31 30 27 25 25 24 24 22 23 21 21 25
48 47 44 40 40 40 39 37 37 38 39 38 35 33 30 30 30 32 31 32 30 29 28 27 27 26 26 27 26 25 24 24 25
48 49 46 42 41 40 39 40 40 39 35 33 29 29 31 30 31 32 33 31 31 30 29 28 28 28 27 24 24 25 25 27 27
53 52 48 44 45 43 41 44 43 39 33 32 29 29 28 29 30 31 32 30 32 32 31 28 26 25 25 22 24 24 25 27 28
61 59 53 49 47 48 47 47 43 38 35 33 31 28 30 28 32 32 32 33 35 34 31 30 25 24 22 21 22 21 20 21 24
62 60 56 50 50 50 47 48 45 40 37 34 32 31 33 30 30 28 29 34 37 36 35 28 26 26 25 21 21 24 26 29 28
65 62 60 57 54 51 48 48 44 42 38 37 36 34 34 32 30 34 32 36 39 38 35 30 30 27 26 25 25 28 31 31 31
67 62 61 62 58 54 50 47 48 47 41 40 40 39 35 36 36 38 34 38 40 35 32 33 32 31 29 30 33 32 33 35 36
69 64 64 63 60 55 52 53 53 48 44 42 41 43 38 36 36 37 34 36 39 38 35 34 33 34 35 36 35 37 38 38 39
76 67 66 67 64 59 59 57 56 51 48 43 44 45 40 38 39 37 36 37 37 42 42 37 35 35 39 41 40 42 44 42 42
70 73 69 70 64 63 62 59 57 52 51 46 44 45 43 39 38 40 42 40 40 41 48 48 43 41 44 45 44 48 46 49 44
68 70 74 72 67 66 62 61 59 54 51 49 47 48 46 43 42 39 42 44 44 46 47 49 47 48 47 46 46 48 52 48 47
68 68 67 66 66 67 65 65 62 59 55 49 49 52 53 47 48 44 42 46 49 51 48 49 50 50 48 51 51 48 39 42 45
74 71 67 65 68 66 68 67 64 62 59 53 55 57 54 49 51 52 51 50 51 53 53 52 52 53 54 52 50 51 50 49 51
75 74 72 69 69 69 68 66 64 61 61 58 56 60 55 52 52 57 54 51 53 57 57 58 56 57 52 52 54 53 53 57 60
Wind_Direction
235 235 235 236 237 239 244 248 250 253 255 261 269 276 280 286 290 294 297 297 300 303 305 303 300 300 294 291 289 293 293 292 289
238 236 236 237 238 242 245 249 249 253 259 265 270 276 283 288 291 296 298 301 304 305 306 304 300 295 288 289 289 289 288 288 294
239 238 237 237 239 242 245 246 250 256 263 268 273 276 282 285 290 297 301 302 304 307 303 302 297 291 285 283 282 276 280 284 291
239 241 241 241 240 243 245 249 254 259 264 271 275 277 283 285 294 297 302 304 304 302 300 297 295 289 289 281 280 276 277 282 287
239 241 242 244 244 244 247 250 254 260 268 275 276 278 282 287 294 298 303 302 299 296 297 292 287 281 281 275 271 270 276 279 287
239 239 242 245 246 245 248 253 256 264 272 281 277 278 283 285 289 295 299 299 297 296 295 287 280 273 276 274 266 270 277 278 285
237 241 242 245 245 246 248 254 260 270 276 278 274 276 280 286 286 294 297 297 299 295 289 283 276 273 272 270 267 266 273 281 282
236 241 241 245 246 247 250 255 263 273 275 273 274 274 281 283 287 293 294 294 298 297 288 283 275 275 271 273 273 273 278 284 286
231 236 239 241 247 244 250 255 265 270 272 272 274 276 280 284 285 287 286 290 293 301 297 287 278 270 266 261 263 272 286 288 292
234 238 240 240 244 249 255 258 264 266 272 271 270 275 281 283 284 282 278 286 290 295 296 289 274 264 258 260 273 281 286 299 304
233 236 239 239 245 249 252 258 263 263 270 271 272 275 281 283 279 273 282 284 289 295 297 287 275 265 262 262 269 277 288 294 299
230 234 237 238 241 246 249 258 261 263 266 270 270 273 280 279 266 276 280 280 287 291 296 289 275 263 261 264 276 285 289 292 294
233 236 238 242 241 244 249 248 256 261 265 269 269 272 278 275 275 271 272 278 282 285 293 290 278 267 262 272 280 283 289 290 293
231 236 238 240 241 245 245 250 257 260 261 264 266 270 272 271 278 268 273 284 285 286 286 283 283 268 272 276 278 279 284 287 293
233 230 239 239 242 243 248 252 252 259 259 259 260 266 271 269 275 269 274 281 286 289 288 285 280 272 270 273 277 278 283 288 300
232 232 232 236 242 239 246 249 252 256 257 258 261 263 268 268 272 273 270 271 280 279 281 283 282 271 268 271 277 282 291 295 298
233 233 232 237 242 242 241 244 252 252 256 257 261 263 268 268 271 277 274 270 272 277 275 276 276 275 278 280 284 288 295 296 291
238 234 235 237 238 240 242 244 249 251 252 254 260 263 264 267 267 272 275 277 276 277 276 273 273 277 281 286 292 293 297 300 298
236 238 237 237 237 238 241 245 248 249 252 251 255 261 261 265 268 267 275 272 275 274 272 273 268 275 280 286 289 284 293 297 298
236 237 237 239 239 240 240 242 245 247 250 250 253 257 258 261 264 266 271 271 277 275 274 276 273 275 280 282 282 286 294 296 299
Height
10839 10842 10844 10846 10849 10851 10853 10855 10857 10859 10860 10862 10862 10862 10862 10862 10861 10860 10858 10856 10855 10852 10851 10848 10847 10845 10843 10843 10841 10840 10840 10838 10836
10835 10838 10840 10842 10845 10847 10850 10852 10854 10856 10857 10858 10857 10858 10858 10857 10856 10854 10853 10851 10849 10847 10846 10843 10842 10840 10839 10837 10836 10835 10834 10833 10831
10830 10833 10836 10838 10841 10843 10846 10848 10850 10852 10852 10853 10853 10852 10853 10851 10851 10849 10848 10847 10845 10843 10842 10840 10837 10835 10834 10832 10831 10831 10830 10828 10826
10823 10827 10830 10833 10836 10838 10841 10843 10845 10847 10847 10847 10847 10847 10847 10847 10846 10845 10844 10842 10840 10838 10836 10835 10832 10831 10829 10828 10827 10826 10825 10824 10822
10816 10820 10824 10826 10830 10832 10835 10837 10840 10841 10842 10842 10841 10843 10842 10842 10840 10840 10838 10836 10835 10833 10831 10829 10828 10826 10824 10823 10823 10821 10820 10820 10818
10808 10812 10816 10819 10822 10826 10829 10831 10834 10835 10836 10836 10836 10837 10837 10836 10835 10834 10833 10831 10829 10827 10826 10824 10823 10821 10820 10819 10818 10817 10816 10815 10813
10800 10804 10808 10811 10814 10818 10822 10824 10827 10829 10830 10829 10830 10831 10830 10830 10829 10828 10826 10825 10823 10822 10821 10819 10818 10816 10815 10813 10812 10812 10811 10810 10807
10792 10795 10800 10804 10806 10810 10815 10817 10820 10822 10823 10821 10824 10824 10824 10823 10823 10821 10820 10819 10818 10817 10815 10814 10812 10810 10810 10809 10808 10807 10806 10804 10802
10783 10787 10792 10796 10799 10803 10807 10810 10813 10814 10816 10814 10817 10817 10817 10816 10816 10815 10814 10814 10813 10812 10811 10809 10807 10805 10804 10803 10802 10802 10801 10799 10797
10774 10779 10783 10787 10792 10796 10799 10803 10805 10807 10808 10806 10809 10810 10810 10810 10809 10808 10808 10808 10806 10806 10804 10803 10801 10800 10798 10797 10797 10796 10795 10793 10791
10764 10770 10774 10778 10784 10788 10791 10795 10796 10799 10801 10799 10801 10803 10803 10803 10802 10802 10802 10801 10799 10798 10797 10796 10795 10793 10793 10791 10790 10789 10788 10786 10785
10752 10759 10765 10769 10775 10778 10782 10786 10788 10791 10793 10792 10792 10797 10796 10797 10796 10795 10795 10794 10793 10792 10791 10789 10788 10786 10786 10785 10784 10783 10781 10779 10776
10740 10748 10754 10760 10766 10770 10774 10776 10780 10783 10784 10786 10784 10786 10790 10788 10789 10789 10788 10787 10786 10785 10784 10783 10781 10780 10779 10778 10777 10775 10774 10771 10768
10728 10737 10743 10750 10756 10760 10765 10767 10771 10775 10776 10778 10778 10777 10781 10781 10780 10781 10780 10779 10778 10777 10777 10775 10774 10773 10772 10771 10769 10767 10765 10763 10761
10716 10725 10732 10738 10746 10750 10754 10758 10762 10765 10767 10770 10772 10771 10771 10774 10773 10773 10773 10771 10771 10769 10767 10767 10766 10765 10763 10762 10760 10758 10757 10755 10754
10704 10712 10721 10727 10733 10739 10743 10749 10753 10755 10756 10761 10763 10763 10763 10764 10764 10764 10765 10764 10763 10762 10759 10757 10757 10755 10753 10753 10752 10750 10749 10747 10745
10692 10700 10708 10715 10721 10727 10733 10737 10742 10743 10745 10750 10754 10754 10754 10755 10756 10756 10754 10754 10754 10752 10749 10747 10746 10746 10746 10745 10743 10741 10739 10736 10734
10678 10686 10695 10703 10709 10715 10720 10726 10730 10731 10734 10739 10743 10743 10744 10746 10745 10747 10745 10744 10743 10741 10740 10736 10735 10735 10735 10734 10733 10731 10728 10726 10723
10665 10672 10682 10690 10696 10703 10709 10713 10717 10720 10723 10727 10729 10731 10733 10735 10734 10735 10735 10734 10732 10730 10729 10727 10725 10725 10725 10723 10722 10721 10719 10716 10713
10653 10661 10669 10677 10684 10690 10696 10700 10704 10708 10710 10713 10717 10719 10721 10721 10722 10724 10724 10723 10721 10719 10718 10717 10715 10714 10714 10712 10711 10710 10707 10704 10700